,,Stat5,,Stat1,,Stat2,,Stat3,,Stat4,,Wind1,,Wind1,
time,status,PA1M_AVG,status,PR1M_SUM,status,RH1M_AVG,status,SR1M_AVG,status,TA1M_AVG,status,W1dAve1m,status,W1sAve1m,
2001-07-04, 00:00:00,VALID,918.27,VALID,0,VALID,95.4975,VALID,-0.0849042,VALID,17.0838,VALID,59,VALID,0,
2001-07-04, 00:01:00,VALID,918.265,VALID,0,VALID,95.7633,VALID,-0.0849042,VALID,17.1064,VALID,59,VALID,0,
2001-07-04, 00:02:00,VALID,918.234,VALID,0,VALID,95.7327,VALID,-0.0849042,VALID,17.1421,VALID,58,VALID,0,
2001-07-04, 00:03:00,VALID,918.21,VALID,0,VALID,93.9576,VALID,-0.0339617,VALID,17.0676,VALID,17,VALID,0.03125,
2001-07-04, 00:04:00,VALID,918.217,VALID,0,VALID,94.306,VALID,-0.0509425,VALID,17.0067,VALID,301,VALID,0.55907,
2001-07-04, 00:05:00,VALID,918.228,VALID,0,VALID,95.0702,VALID,-0.0169808,VALID,17.1513,VALID,295,VALID,0.620477,
2001-07-04, 00:06:01,VALID,918.242,VALID,0,VALID,94.437,VALID,-0.0339617,VALID,17.2613,VALID,302,VALID,0.525446,
2001-07-04, 00:07:00,VALID,918.251,VALID,0,VALID,92.3541,VALID,-0.0509425,VALID,17.1933,VALID,306,VALID,0.194912,
2001-07-04, 00:08:00,VALID,918.257,VALID,0,VALID,93.4807,VALID,-0.0679233,VALID,17.2228,VALID,304,VALID,0.204644,
2001-07-04, 00:09:01,VALID,918.258,VALID,0,VALID,92.644,VALID,-0.0339617,VALID,17.1419,VALID,349,VALID,0.313133,
2001-07-04, 00:10:00,VALID,918.239,VALID,0,VALID,92.541,VALID,-0.0849042,VALID,17.045,VALID,358,VALID,0.376803,
2001-07-04, 00:11:00,VALID,918.231,VALID,0,VALID,93.2188,VALID,-0.0509425,VALID,16.9449,VALID,9,VALID,0.211965,
2001-07-04, 00:12:00,VALID,918.207,VALID,0,VALID,93.5303,VALID,-0.0509425,VALID,16.8965,VALID,9,VALID,0,
2001-07-04, 00:13:00,VALID,918.187,VALID,0,VALID,94.2068,VALID,-0.0679233,VALID,16.8614,VALID,9,VALID,0,
2001-07-04, 00:14:00,VALID,918.18,VALID,0,VALID,94.671,VALID,-0.0679233,VALID,16.8447,VALID,9,VALID,0,
2001-07-04, 00:15:00,VALID,918.174,VALID,0,VALID,94.9037,VALID,-0.0849042,VALID,16.8352,VALID,9,VALID,0,
2001-07-04, 00:16:00,VALID,918.171,VALID,0,VALID,95.1834,VALID,-0.101885,VALID,16.852,VALID,9,VALID,0,
2001-07-04, 00:17:01,VALID,918.18,VALID,0,VALID,95.7912,VALID,-0.0679233,VALID,16.8937,VALID,9,VALID,0,
2001-07-04, 00:18:00,VALID,918.162,VALID,0,VALID,96.085,VALID,-0.0849042,VALID,16.9452,VALID,9,VALID,0,
2001-07-04, 00:19:01,VALID,918.179,VALID,0,VALID,96.2261,VALID,-0.0679233,VALID,16.997,VALID,9,VALID,0,
2001-07-04, 00:20:00,VALID,918.173,VALID,0,VALID,96.1587,VALID,-0.0849042,VALID,17.0358,VALID,9,VALID,0,
2001-07-04, 00:21:00,VALID,918.171,VALID,0,VALID,95.9171,VALID,-0.0849042,VALID,17.0355,VALID,62,VALID,0,
2001-07-04, 00:22:00,VALID,918.171,VALID,0,VALID,95.6234,VALID,-0.101885,VALID,17.0358,VALID,62,VALID,0,
2001-07-04, 00:23:00,VALID,918.166,VALID,0,VALID,95.5446,VALID,-0.0849042,VALID,17.039,VALID,66,VALID,0,
2001-07-04, 00:24:00,VALID,918.151,VALID,0,VALID,95.5178,VALID,-0.101885,VALID,17.0491,VALID,97,VALID,0.0178865,
2001-07-04, 00:25:00,VALID,918.151,VALID,0,VALID,95.1605,VALID,-0.101885,VALID,17.0194,VALID,125,VALID,0.407939,
2001-07-04, 00:26:00,VALID,918.133,VALID,0,VALID,95.0423,VALID,-0.0849042,VALID,17,VALID,121,VALID,0.308811,
2001-07-04, 00:27:00,VALID,918.11,VALID,0,VALID,95.0474,VALID,-0.0169808,VALID,16.9927,VALID,100,VALID,0.451172,
2001-07-04, 00:28:00,VALID,918.115,VALID,0,VALID,95.6425,VALID,0.0339617,VALID,17.0216,VALID,87,VALID,0.728618,
2001-07-04, 00:29:01,VALID,918.089,VALID,0,VALID,95.5267,VALID,0.0509425,VALID,17.0956,VALID,84,VALID,0.849712,
2001-07-04, 00:30:00,VALID,918.06,VALID,0,VALID,95.0334,VALID,0,VALID,17.1475,VALID,100,VALID,0.772786,
2001-07-04, 00:31:00,VALID,918.047,VALID,0,VALID,94.6735,VALID,0.0169808,VALID,17.1765,VALID,76,VALID,0.304688,
2001-07-04, 00:32:00,VALID,918.027,VALID,0,VALID,94.3111,VALID,0.0339617,VALID,17.1995,VALID,69,VALID,0.106086,
2001-07-04, 00:33:00,VALID,917.993,VALID,0,VALID,93.9741,VALID,0.0339617,VALID,17.1864,VALID,69,VALID,0,
2001-07-04, 00:34:01,VALID,917.96,VALID,0,VALID,93.5812,VALID,0.0509425,VALID,17.1574,VALID,85,VALID,0.321484,
2001-07-04, 00:35:00,VALID,917.944,VALID,0,VALID,92.7356,VALID,0.0509425,VALID,17.0827,VALID,146,VALID,0.457237,
2001-07-04, 00:36:00,VALID,917.923,VALID,0,VALID,92.9797,VALID,0.0169808,VALID,16.9731,VALID,216,VALID,0.254317,
2001-07-04, 00:37:00,VALID,917.929,VALID,0,VALID,93.777,VALID,0,VALID,16.9221,VALID,198,VALID,0.386819,
2001-07-04, 00:38:00,VALID,917.925,VALID,0,VALID,93.8813,VALID,0.0169808,VALID,16.8763,VALID,152,VALID,0.483173,
2001-07-04, 00:39:00,VALID,917.899,VALID,0,VALID,94.0352,VALID,0.0339617,VALID,16.8343,VALID,144,VALID,0.580329,
2001-07-04, 00:40:00,VALID,917.889,VALID,0,VALID,94.5374,VALID,0,VALID,16.8219,VALID,145,VALID,0.388557,
2001-07-04, 00:41:00,VALID,917.866,VALID,0,VALID,94.5565,VALID,0,VALID,16.7956,VALID,145,VALID,0.296094,
2001-07-04, 00:42:01,VALID,917.824,VALID,0,VALID,94.3785,VALID,-0.0509425,VALID,16.7708,VALID,145,VALID,0.326172,
2001-07-04, 00:43:00,VALID,917.823,VALID,0,VALID,94.8197,VALID,-0.101885,VALID,16.7327,VALID,145,VALID,0.286458,
2001-07-04, 00:44:00,VALID,917.817,VALID,0,VALID,94.9685,VALID,-0.101885,VALID,16.723,VALID,132,VALID,0.297086,
2001-07-04, 00:45:00,VALID,917.795,VALID,0,VALID,95.3614,VALID,-0.101885,VALID,16.7002,VALID,119,VALID,0.413857,
2001-07-04, 00:46:00,VALID,917.795,VALID,0,VALID,95.5713,VALID,-0.0509425,VALID,16.674,VALID,129,VALID,0.373264,
2001-07-04, 00:47:00,VALID,917.814,VALID,0,VALID,96.1346,VALID,-0.101885,VALID,16.6869,VALID,140,VALID,0.410262,
2001-07-04, 00:48:00,VALID,917.806,VALID,0,VALID,96.3495,VALID,-0.101885,VALID,16.7129,VALID,141,VALID,0.199219,
2001-07-04, 00:49:01,VALID,917.819,VALID,0,VALID,96.8607,VALID,-0.0339617,VALID,16.7579,VALID,141,VALID,0.161184,
2001-07-04, 00:50:01,VALID,917.79,VALID,0,VALID,97.1493,VALID,-0.0509425,VALID,16.8393,VALID,141,VALID,0.166807,
2001-07-04, 00:51:01,VALID,917.775,VALID,0,VALID,97.0565,VALID,-0.101885,VALID,16.9071,VALID,137,VALID,0.328697,
2001-07-04, 00:52:00,VALID,917.763,VALID,0,VALID,96.5135,VALID,-0.101885,VALID,16.9264,VALID,131,VALID,0.463086,
2001-07-04, 00:53:01,VALID,917.756,VALID,0,VALID,96.53,VALID,-0.101885,VALID,16.9232,VALID,131,VALID,0.426398,
2001-07-04, 00:54:00,VALID,917.752,VALID,0,VALID,96.7666,VALID,-0.0849042,VALID,16.965,VALID,134,VALID,0.436655,
2001-07-04, 00:55:00,VALID,917.747,VALID,0,VALID,96.0875,VALID,-0.101885,VALID,16.9746,VALID,145,VALID,0.630469,
2001-07-04, 00:56:01,VALID,917.755,VALID,0,VALID,95.5929,VALID,-0.0849042,VALID,16.9292,VALID,144,VALID,0.760691,
2001-07-04, 00:57:01,VALID,917.759,VALID,0,VALID,95.1542,VALID,-0.0339617,VALID,16.8576,VALID,135,VALID,0.628571,
2001-07-04, 00:58:00,VALID,917.762,VALID,0,VALID,94.877,VALID,0,VALID,16.793,VALID,100,VALID,0.476563,
2001-07-04, 00:59:00,VALID,917.756,VALID,0,VALID,95.6577,VALID,0.0169808,VALID,16.7504,VALID,118,VALID,0.787543,
2001-07-04, 01:00:01,VALID,917.749,VALID,0,VALID,96.8022,VALID,0.0169808,VALID,16.7894,VALID,129,VALID,0.828547,
2001-07-04, 01:01:00,VALID,917.746,VALID,0,VALID,97.2574,VALID,0,VALID,16.8475,VALID,128,VALID,0.798678,
2001-07-04, 01:02:00,VALID,917.725,VALID,0,VALID,97.3134,VALID,0,VALID,16.8705,VALID,136,VALID,1.01768,
2001-07-04, 01:03:01,VALID,917.701,VALID,0,VALID,97.246,VALID,0,VALID,16.8576,VALID,141,VALID,0.942845,
2001-07-04, 01:04:00,VALID,917.664,VALID,0,VALID,97.2599,VALID,0,VALID,16.8472,VALID,131,VALID,0.727196,
2001-07-04, 01:05:00,VALID,917.654,VALID,0,VALID,97.3083,VALID,0,VALID,16.8578,VALID,126,VALID,0.890842,
2001-07-04, 01:06:00,VALID,917.655,VALID,0,VALID,97.4354,VALID,0,VALID,16.8475,VALID,127,VALID,0.827703,
2001-07-04, 01:07:00,VALID,917.639,VALID,0,VALID,97.4914,VALID,0,VALID,16.8511,VALID,128,VALID,0.742599,
2001-07-04, 01:08:01,VALID,917.614,VALID,0,VALID,97.3032,VALID,0,VALID,16.8444,VALID,116,VALID,0.806891,
2001-07-04, 01:09:00,VALID,917.605,VALID,0,VALID,97.4125,VALID,0,VALID,16.835,VALID,119,VALID,1.33273,
2001-07-04, 01:10:01,VALID,917.583,VALID,0,VALID,97.5829,VALID,0,VALID,16.8509,VALID,128,VALID,1.13894,
2001-07-04, 01:11:00,VALID,917.553,VALID,0,VALID,97.5219,VALID,-0.0169808,VALID,16.8705,VALID,130,VALID,0.849507,
2001-07-04, 01:12:01,VALID,917.527,VALID,0,VALID,97.5562,VALID,0.0169808,VALID,16.8735,VALID,132,VALID,0.611579,
2001-07-04, 01:13:00,VALID,917.501,VALID,0,VALID,97.4748,VALID,0.0169808,VALID,16.8797,VALID,136,VALID,0.643229,
2001-07-04, 01:14:00,VALID,917.483,VALID,0,VALID,97.5244,VALID,0,VALID,16.8896,VALID,136,VALID,0.654642,
2001-07-04, 01:15:00,VALID,917.477,VALID,0,VALID,97.864,VALID,-0.0509425,VALID,16.9279,VALID,130,VALID,0.719778,
2001-07-04, 01:16:00,VALID,917.434,VALID,0,VALID,97.8652,VALID,0,VALID,16.9869,VALID,132,VALID,0.699535,
2001-07-04, 01:17:01,VALID,917.416,VALID,0,VALID,98.0051,VALID,0,VALID,17.045,VALID,130,VALID,0.513238,
2001-07-04, 01:18:01,VALID,917.416,VALID,0,VALID,97.9326,VALID,0,VALID,17.0676,VALID,130,VALID,0.407986,
2001-07-04, 01:19:00,VALID,917.41,VALID,0,VALID,97.8207,VALID,0,VALID,17.0739,VALID,129,VALID,0.449013,
2001-07-04, 01:20:00,VALID,917.415,VALID,0,VALID,97.6211,VALID,0,VALID,17.0801,VALID,129,VALID,0.260896,
2001-07-04, 01:21:00,VALID,917.426,VALID,0,VALID,97.1938,VALID,0,VALID,17.0246,VALID,124,VALID,0.443142,
2001-07-04, 01:22:00,VALID,917.414,VALID,0,VALID,97.0794,VALID,0.0169808,VALID,16.9796,VALID,113,VALID,0.677902,
2001-07-04, 01:23:00,VALID,917.392,VALID,0,VALID,97.0705,VALID,0.0169808,VALID,16.935,VALID,114,VALID,0.885691,
2001-07-04, 01:24:00,VALID,917.371,VALID,0,VALID,97.1849,VALID,0,VALID,16.9088,VALID,115,VALID,1.15445,
2001-07-04, 01:25:01,VALID,917.369,VALID,0,VALID,97.7406,VALID,0,VALID,16.9538,VALID,119,VALID,1.25703,
2001-07-04, 01:26:00,VALID,917.379,VALID,0,VALID,97.7724,VALID,0,VALID,17.0315,VALID,111,VALID,1.04667,
2001-07-04, 01:27:00,VALID,917.369,VALID,0,VALID,97.485,VALID,0,VALID,17.0637,VALID,95,VALID,0.892681,
2001-07-04, 01:28:00,VALID,917.351,VALID,0,VALID,97.3871,VALID,0,VALID,17.093,VALID,102,VALID,0.990785,
2001-07-04, 01:29:00,VALID,917.313,VALID,0,VALID,97.012,VALID,0,VALID,17.093,VALID,118,VALID,1.16987,
2001-07-04, 01:30:01,VALID,917.308,VALID,0,VALID,96.4207,VALID,0,VALID,17.0605,VALID,124,VALID,1.01823,
2001-07-04, 01:31:00,VALID,917.284,VALID,0,VALID,96.6699,VALID,0,VALID,17.0672,VALID,123,VALID,1.11029,
2001-07-04, 01:32:00,VALID,917.267,VALID,0,VALID,96.6496,VALID,0,VALID,17.0894,VALID,123,VALID,1.04512,
2001-07-04, 01:33:01,VALID,917.238,VALID,0,VALID,96.4855,VALID,0,VALID,17.093,VALID,116,VALID,1.06489,
2001-07-04, 01:34:01,VALID,917.198,VALID,0,VALID,96.7081,VALID,0,VALID,17.1089,VALID,108,VALID,1.29427,
2001-07-04, 01:35:00,VALID,917.165,VALID,0,VALID,97.1531,VALID,-0.0169808,VALID,17.1739,VALID,111,VALID,1.53357,
2001-07-04, 01:36:00,VALID,917.143,VALID,0,VALID,97.0018,VALID,-0.0169808,VALID,17.2355,VALID,112,VALID,1.47081,
2001-07-04, 01:37:00,VALID,917.126,VALID,0,VALID,96.8327,VALID,0,VALID,17.2645,VALID,112,VALID,1.37066,
2001-07-04, 01:38:00,VALID,917.136,VALID,0,VALID,96.3368,VALID,-0.0169808,VALID,17.2645,VALID,100,VALID,0.894215,
2001-07-04, 01:39:01,VALID,917.132,VALID,0,VALID,95.7836,VALID,0.0169808,VALID,17.183,VALID,90,VALID,0.857639,
2001-07-04, 01:40:01,VALID,917.142,VALID,0,VALID,96.146,VALID,0.0339617,VALID,17.1703,VALID,96,VALID,1.00966,
2001-07-04, 01:41:01,VALID,917.155,VALID,0,VALID,96.0621,VALID,-0.0169808,VALID,17.1345,VALID,88,VALID,1.00021,
2001-07-04, 01:42:01,VALID,917.162,VALID,0,VALID,96.3902,VALID,-0.0169808,VALID,17.1219,VALID,87,VALID,1.25857,
2001-07-04, 01:43:01,VALID,917.153,VALID,0,VALID,95.8803,VALID,0.0169808,VALID,17.0831,VALID,83,VALID,0.901758,
2001-07-04, 01:44:01,VALID,917.137,VALID,0,VALID,96.2274,VALID,0.0339617,VALID,17.0407,VALID,84,VALID,0.912829,
2001-07-04, 01:45:01,VALID,917.125,VALID,0,VALID,96.3291,VALID,0,VALID,17.0284,VALID,92,VALID,0.828125,
2001-07-04, 01:46:01,VALID,917.108,VALID,0,VALID,96.6852,VALID,0,VALID,16.9957,VALID,109,VALID,0.938086,
2001-07-04, 01:47:01,VALID,917.092,VALID,0,VALID,96.8937,VALID,0,VALID,17.0054,VALID,122,VALID,0.818668,
2001-07-04, 01:48:01,VALID,917.067,VALID,0,VALID,96.9115,VALID,0,VALID,17.0091,VALID,107,VALID,1.03259,
2001-07-04, 01:49:01,VALID,917.008,VALID,0,VALID,97.0997,VALID,0,VALID,17.0282,VALID,117,VALID,0.956931,
2001-07-04, 01:50:01,VALID,916.991,VALID,0,VALID,97.0145,VALID,-0.0169808,VALID,17.0383,VALID,142,VALID,0.791233,
2001-07-04, 01:51:01,VALID,916.983,VALID,0,VALID,96.8518,VALID,-0.0169808,VALID,17.0151,VALID,157,VALID,0.894848,
2001-07-04, 01:52:01,VALID,916.981,VALID,0,VALID,95.9616,VALID,0,VALID,16.9609,VALID,155,VALID,1.05769,
2001-07-04, 01:53:01,VALID,916.953,VALID,0,VALID,96.1715,VALID,0,VALID,16.8733,VALID,146,VALID,0.948191,
2001-07-04, 01:54:01,VALID,916.919,VALID,0,VALID,96.4614,VALID,0,VALID,16.8733,VALID,141,VALID,0.740954,
2001-07-04, 01:55:01,VALID,916.89,VALID,0,VALID,96.4398,VALID,-0.0169808,VALID,16.8442,VALID,133,VALID,0.805954,
2001-07-04, 01:56:01,VALID,916.865,VALID,0,VALID,97.3973,VALID,0.0169808,VALID,16.8989,VALID,122,VALID,0.935547,
2001-07-04, 01:57:01,VALID,916.859,VALID,0,VALID,97.4685,VALID,0.0169808,VALID,16.9863,VALID,105,VALID,0.84375,
2001-07-04, 01:58:01,VALID,916.848,VALID,0,VALID,97.6605,VALID,0.0169808,VALID,17.0569,VALID,98,VALID,1,
2001-07-04, 01:59:01,VALID,916.832,VALID,0,VALID,97.1531,VALID,0,VALID,17.1315,VALID,82,VALID,0.739583,
2001-07-04, 02:00:01,VALID,916.835,VALID,0,VALID,95.4784,VALID,0,VALID,17.0442,VALID,60,VALID,0.903846,
2001-07-04, 02:01:01,VALID,916.843,VALID,0,VALID,95.4911,VALID,0,VALID,16.9992,VALID,72,VALID,0.771115,
2001-07-04, 02:02:00,VALID,916.805,VALID,0,VALID,95.289,VALID,0,VALID,16.9441,VALID,68,VALID,0.250822,
2001-07-04, 02:03:00,VALID,916.824,VALID,0,VALID,94.9507,VALID,0,VALID,16.903,VALID,138,VALID,0.307893,
2001-07-04, 02:04:00,VALID,916.83,VALID,0,VALID,95.3131,VALID,-0.0509425,VALID,16.8511,VALID,155,VALID,0.483974,
2001-07-04, 02:05:00,VALID,916.848,VALID,0,VALID,96.1155,VALID,0,VALID,16.8378,VALID,120,VALID,0.569853,
2001-07-04, 02:06:00,VALID,916.836,VALID,0,VALID,94.4662,VALID,-0.0169808,VALID,16.7478,VALID,27,VALID,0.556538,
2001-07-04, 02:07:00,VALID,916.828,VALID,0,VALID,93.3536,VALID,-0.0169808,VALID,16.4958,VALID,9,VALID,0.747466,
2001-07-04, 02:08:00,VALID,916.81,VALID,0,VALID,95.4238,VALID,-0.0169808,VALID,16.4666,VALID,10,VALID,0.397569,
2001-07-04, 02:09:00,VALID,916.782,VALID,0,VALID,96.5707,VALID,0,VALID,16.5283,VALID,27,VALID,0.458333,
2001-07-04, 02:10:00,VALID,916.757,VALID,0,VALID,97.761,VALID,0,VALID,16.6506,VALID,42,VALID,0.419613,
2001-07-04, 02:11:00,VALID,916.761,VALID,0,VALID,98.0801,VALID,0.0169808,VALID,16.7633,VALID,43,VALID,0.0501645,
2001-07-04, 02:12:00,VALID,916.751,VALID,0,VALID,98.0394,VALID,0,VALID,16.838,VALID,43,VALID,0.0557726,
2001-07-04, 02:13:00,VALID,916.762,VALID,0,VALID,97.9873,VALID,-0.0169808,VALID,16.8836,VALID,45,VALID,0.2875,
2001-07-04, 02:14:00,VALID,916.745,VALID,0,VALID,97.5384,VALID,-0.0169808,VALID,16.8899,VALID,45,VALID,0.067023,
2001-07-04, 02:15:00,VALID,916.729,VALID,0,VALID,96.942,VALID,-0.0169808,VALID,16.8313,VALID,45,VALID,0.0404647,
2001-07-04, 02:16:00,VALID,916.724,VALID,0,VALID,96.6699,VALID,-0.0169808,VALID,16.7801,VALID,45,VALID,0.0353516,
2001-07-04, 02:17:00,VALID,916.68,VALID,0,VALID,96.4194,VALID,0,VALID,16.7289,VALID,45,VALID,0.351151,
2001-07-04, 02:18:00,VALID,916.659,VALID,0,VALID,96.4385,VALID,0,VALID,16.648,VALID,47,VALID,0.515008,
2001-07-04, 02:19:00,VALID,916.612,VALID,0,VALID,97.7012,VALID,0,VALID,16.7672,VALID,58,VALID,0.479968,
2001-07-04, 02:20:00,VALID,916.579,VALID,0,VALID,97.6058,VALID,-0.0169808,VALID,16.8354,VALID,83,VALID,0.454527,
2001-07-04, 02:21:00,VALID,916.554,VALID,0,VALID,97.1506,VALID,0,VALID,16.8223,VALID,120,VALID,0.427484,
2001-07-04, 02:22:00,VALID,916.562,VALID,0,VALID,96.4321,VALID,0,VALID,16.7446,VALID,161,VALID,0.504596,
2001-07-04, 02:23:00,VALID,916.547,VALID,0,VALID,96.1575,VALID,0,VALID,16.6439,VALID,161,VALID,0.306641,
2001-07-04, 02:24:00,VALID,916.523,VALID,0,VALID,96.1969,VALID,-0.0169808,VALID,16.5995,VALID,161,VALID,0.292101,
2001-07-04, 02:25:00,VALID,916.489,VALID,0,VALID,95.8675,VALID,-0.0339617,VALID,16.5447,VALID,115,VALID,0.365668,
2001-07-04, 02:26:00,VALID,916.472,VALID,0,VALID,96.2948,VALID,-0.0169808,VALID,16.4706,VALID,86,VALID,0.766681,
2001-07-04, 02:27:00,VALID,916.453,VALID,0,VALID,96.9637,VALID,-0.0339617,VALID,16.4868,VALID,96,VALID,1.02837,
2001-07-04, 02:28:00,VALID,916.44,VALID,0,VALID,97.6122,VALID,-0.0169808,VALID,16.5217,VALID,98,VALID,1.00564,
2001-07-04, 02:29:00,VALID,916.44,VALID,0,VALID,97.2358,VALID,-0.0339617,VALID,16.5154,VALID,118,VALID,0.647171,
2001-07-04, 02:30:00,VALID,916.428,VALID,0,VALID,97.4494,VALID,-0.0169808,VALID,16.493,VALID,127,VALID,0.496962,
2001-07-04, 02:31:00,VALID,916.38,VALID,0,VALID,97.5333,VALID,0,VALID,16.493,VALID,128,VALID,0.602796,
2001-07-04, 02:32:00,VALID,916.356,VALID,0,VALID,97.4761,VALID,0,VALID,16.4862,VALID,128,VALID,0.516892,
2001-07-04, 02:33:00,VALID,916.33,VALID,0,VALID,97.4253,VALID,0,VALID,16.4767,VALID,121,VALID,0.623094,
2001-07-04, 02:34:00,VALID,916.308,VALID,0,VALID,96.8912,VALID,0,VALID,16.4285,VALID,73,VALID,0.741211,
2001-07-04, 02:35:00,VALID,916.294,VALID,0,VALID,95.8828,VALID,-0.0169808,VALID,16.2439,VALID,61,VALID,0.804688,
2001-07-04, 02:36:00,VALID,916.303,VALID,0,VALID,95.7569,VALID,0,VALID,16.157,VALID,60,VALID,0.450591,
2001-07-04, 02:37:00,VALID,916.328,VALID,0,VALID,95.8968,VALID,0,VALID,16.0962,VALID,44,VALID,0.200977,
2001-07-04, 02:38:00,VALID,916.33,VALID,0,VALID,96.7907,VALID,0,VALID,16.1315,VALID,7,VALID,0.126234,
2001-07-04, 02:39:00,VALID,916.321,VALID,0,VALID,97.5283,VALID,-0.0509425,VALID,16.2316,VALID,7,VALID,0,
2001-07-04, 02:40:00,VALID,916.285,VALID,0,VALID,98.056,VALID,-0.0509425,VALID,16.2931,VALID,12,VALID,0.182492,
2001-07-04, 02:41:00,VALID,916.26,VALID,0,VALID,97.8614,VALID,0,VALID,16.3252,VALID,51,VALID,0.739366,
2001-07-04, 02:42:00,VALID,916.241,VALID,0,VALID,96.7526,VALID,0,VALID,16.1995,VALID,44,VALID,0.830025,
2001-07-04, 02:43:00,VALID,916.206,VALID,0,VALID,97.2663,VALID,0,VALID,16.1636,VALID,70,VALID,0.8125,
2001-07-04, 02:44:00,VALID,916.186,VALID,0,VALID,97.7012,VALID,0,VALID,16.2318,VALID,69,VALID,0.510691,
2001-07-04, 02:45:00,VALID,916.16,VALID,0,VALID,97.438,VALID,0.0169808,VALID,16.2292,VALID,68,VALID,0.137747,
2001-07-04, 02:46:00,VALID,916.137,VALID,0,VALID,97.232,VALID,0,VALID,16.1965,VALID,68,VALID,0.0143581,
2001-07-04, 02:47:00,VALID,916.123,VALID,0,VALID,97.3553,VALID,0,VALID,16.1638,VALID,79,VALID,0.347656,
2001-07-04, 02:48:00,VALID,916.105,VALID,0,VALID,97.307,VALID,0,VALID,16.1447,VALID,103,VALID,0.603463,
2001-07-04, 02:49:00,VALID,916.091,VALID,0,VALID,97.7927,VALID,0,VALID,16.1509,VALID,124,VALID,1.0146,
2001-07-04, 02:50:00,VALID,916.073,VALID,0,VALID,98.2823,VALID,0,VALID,16.2417,VALID,126,VALID,0.958734,
2001-07-04, 02:51:00,VALID,916.066,VALID,0,VALID,98.3713,VALID,0,VALID,16.3484,VALID,107,VALID,1.0627,
2001-07-04, 02:52:00,VALID,916.064,VALID,0,VALID,98.5417,VALID,0.0169808,VALID,16.4252,VALID,105,VALID,1.20671,
2001-07-04, 02:53:00,VALID,916.048,VALID,0,VALID,98.6727,VALID,0,VALID,16.5576,VALID,109,VALID,1.17866,
2001-07-04, 02:54:00,VALID,916.002,VALID,0,VALID,98.0051,VALID,0,VALID,16.5991,VALID,112,VALID,0.797877,
2001-07-04, 02:55:00,VALID,915.958,VALID,0,VALID,97.307,VALID,0,VALID,16.5352,VALID,145,VALID,0.905449,
2001-07-04, 02:56:00,VALID,915.948,VALID,0,VALID,97.0857,VALID,0,VALID,16.4868,VALID,152,VALID,1.05009,
2001-07-04, 02:57:00,VALID,915.949,VALID,0,VALID,97.0514,VALID,0,VALID,16.4319,VALID,149,VALID,0.941817,
2001-07-04, 02:58:00,VALID,915.958,VALID,0,VALID,97.4049,VALID,0,VALID,16.4093,VALID,135,VALID,0.74261,
2001-07-04, 02:59:00,VALID,915.964,VALID,0,VALID,97.6338,VALID,0,VALID,16.3934,VALID,119,VALID,0.721571,
2001-07-04, 03:00:00,VALID,915.965,VALID,0,VALID,97.3935,VALID,0,VALID,16.3542,VALID,112,VALID,0.485677,
2001-07-04, 03:01:00,VALID,915.936,VALID,0,VALID,97.8271,VALID,0.0169808,VALID,16.3155,VALID,108,VALID,1.06414,
2001-07-04, 03:02:00,VALID,915.894,VALID,0,VALID,98.234,VALID,0,VALID,16.3577,VALID,98,VALID,0.837788,
2001-07-04, 03:03:00,VALID,915.901,VALID,0,VALID,98.0636,VALID,0,VALID,16.3383,VALID,106,VALID,0.827257,
2001-07-04, 03:04:00,VALID,915.925,VALID,0,VALID,98.4578,VALID,0,VALID,16.3801,VALID,118,VALID,1.19129,
2001-07-04, 03:05:00,VALID,915.928,VALID,0,VALID,98.4629,VALID,0.0169808,VALID,16.4545,VALID,120,VALID,1.10855,
2001-07-04, 03:06:00,VALID,915.934,VALID,0,VALID,98.4158,VALID,-0.0169808,VALID,16.5061,VALID,120,VALID,0.886619,
2001-07-04, 03:07:00,VALID,915.937,VALID,0,VALID,98.1755,VALID,0,VALID,16.5189,VALID,121,VALID,0.840039,
2001-07-04, 03:08:00,VALID,915.934,VALID,0,VALID,98.2709,VALID,0,VALID,16.5576,VALID,127,VALID,0.709087,
2001-07-04, 03:09:00,VALID,915.9,VALID,0,VALID,98.2048,VALID,0.0169808,VALID,16.6094,VALID,115,VALID,0.944285,
2001-07-04, 03:10:00,VALID,915.874,VALID,0,VALID,97.9987,VALID,0,VALID,16.6353,VALID,104,VALID,1.03706,
2001-07-04, 03:11:00,VALID,915.85,VALID,0,VALID,97.8767,VALID,0,VALID,16.651,VALID,94,VALID,0.842147,
2001-07-04, 03:12:00,VALID,915.827,VALID,0,VALID,97.7673,VALID,0,VALID,16.6867,VALID,89,VALID,0.821314,
2001-07-04, 03:13:00,VALID,915.813,VALID,0,VALID,97.1048,VALID,0,VALID,16.6678,VALID,72,VALID,0.719439,
2001-07-04, 03:14:00,VALID,915.804,VALID,0,VALID,96.7373,VALID,0,VALID,16.5998,VALID,86,VALID,0.783008,
2001-07-04, 03:15:00,VALID,915.793,VALID,0,VALID,97.4761,VALID,0,VALID,16.6314,VALID,100,VALID,1.04427,
2001-07-04, 03:16:00,VALID,915.777,VALID,0,VALID,97.6236,VALID,0,VALID,16.7059,VALID,103,VALID,0.768012,
2001-07-04, 03:17:00,VALID,915.773,VALID,0,VALID,97.5867,VALID,0,VALID,16.7351,VALID,108,VALID,0.943201,
2001-07-04, 03:18:00,VALID,915.769,VALID,0,VALID,97.7927,VALID,0,VALID,16.7965,VALID,92,VALID,0.936266,
2001-07-04, 03:19:00,VALID,915.759,VALID,0,VALID,97.56,VALID,0.0169808,VALID,16.8416,VALID,82,VALID,0.913411,
2001-07-04, 03:20:00,VALID,915.75,VALID,0,VALID,97.1023,VALID,0.0169808,VALID,16.8408,VALID,97,VALID,0.9394,
2001-07-04, 03:21:00,VALID,915.763,VALID,0,VALID,97.0641,VALID,0,VALID,16.8836,VALID,105,VALID,1.09701,
2001-07-04, 03:22:00,VALID,915.793,VALID,0,VALID,96.3953,VALID,0.0169808,VALID,16.883,VALID,116,VALID,1.07525,
2001-07-04, 03:23:00,VALID,915.815,VALID,0,VALID,96.01,VALID,0.0169808,VALID,16.8378,VALID,128,VALID,0.990498,
2001-07-04, 03:24:00,VALID,915.824,VALID,0,VALID,96.1994,VALID,-0.0169808,VALID,16.8352,VALID,119,VALID,1.43407,
2001-07-04, 03:25:00,VALID,915.824,VALID,0,VALID,96.4474,VALID,0.0169808,VALID,16.8543,VALID,116,VALID,1.36563,
2001-07-04, 03:26:00,VALID,915.833,VALID,0,VALID,96.483,VALID,0,VALID,16.8868,VALID,110,VALID,1.19038,
2001-07-04, 03:27:00,VALID,915.84,VALID,0,VALID,96.3393,VALID,0.0169808,VALID,16.9092,VALID,107,VALID,0.932855,
2001-07-04, 03:28:00,VALID,915.859,VALID,0,VALID,96.3215,VALID,0,VALID,16.9228,VALID,107,VALID,0.92168,
2001-07-04, 03:29:00,VALID,915.857,VALID,0,VALID,96.1155,VALID,0,VALID,16.9064,VALID,117,VALID,0.794408,
2001-07-04, 03:30:00,VALID,915.834,VALID,0,VALID,95.9515,VALID,0,VALID,16.88,VALID,122,VALID,1.02545,
2001-07-04, 03:31:00,VALID,915.827,VALID,0,VALID,95.9159,VALID,0,VALID,16.8578,VALID,123,VALID,0.851563,
2001-07-04, 03:32:00,VALID,915.824,VALID,0,VALID,96.3101,VALID,0.0169808,VALID,16.8511,VALID,130,VALID,0.891059,
2001-07-04, 03:33:00,VALID,915.788,VALID,0,VALID,96.2897,VALID,-0.0339617,VALID,16.8576,VALID,123,VALID,0.635557,
2001-07-04, 03:34:00,VALID,915.765,VALID,0,VALID,96.1422,VALID,0.0169808,VALID,16.8447,VALID,100,VALID,0.709135,
2001-07-04, 03:35:00,VALID,915.743,VALID,0,VALID,95.6743,VALID,0,VALID,16.7767,VALID,77,VALID,0.45662,
2001-07-04, 03:36:00,VALID,915.732,VALID,0,VALID,94.6226,VALID,0,VALID,16.6381,VALID,71,VALID,0.390831,
2001-07-04, 03:37:00,VALID,915.732,VALID,0,VALID,94.3721,VALID,-0.0169808,VALID,16.4836,VALID,71,VALID,0.265203,